,,PA_Meas_PMT16A,,PR_Meas_QMR101_102,,RH_Meas_QMH101,,SR_Meas_QMS101,,TA_Meas_QMH101,,GenWind,,GenWind,
time,status,PA,status,PR,status,RH,status,SR,status,TA,status,DirAvg,status,SpdAvg,
2011-07-10, 00:00:04,VALID,916.929,VALID,0,VALID,95.3308,VALID,0,VALID,20.5984,VALID,47,VALID,0.571094,
2011-07-10, 00:01:04,VALID,916.905,VALID,0,VALID,95.2927,VALID,0,VALID,20.5984,VALID,47,VALID,0.423828,
2011-07-10, 00:02:04,VALID,916.909,VALID,0,VALID,95.2546,VALID,0.107441,VALID,20.6179,VALID,47,VALID,0,
2011-07-10, 00:03:04,VALID,916.878,VALID,0,VALID,95.1936,VALID,0,VALID,20.6179,VALID,47,VALID,0.6875,
2011-07-10, 00:04:04,VALID,916.875,VALID,0,VALID,94.9725,VALID,0,VALID,20.5984,VALID,47,VALID,0.431641,
2011-07-10, 00:05:04,VALID,916.903,VALID,0,VALID,94.9115,VALID,0,VALID,20.5984,VALID,47,VALID,0.00429688,
2011-07-10, 00:06:04,VALID,916.928,VALID,0,VALID,94.942,VALID,0,VALID,20.6179,VALID,47,VALID,0,
2011-07-10, 00:07:04,VALID,916.924,VALID,0,VALID,94.9878,VALID,0,VALID,20.6569,VALID,47,VALID,0.128906,
2011-07-10, 00:08:04,VALID,916.943,VALID,0,VALID,95.0716,VALID,0,VALID,20.6764,VALID,47,VALID,0.311328,
2011-07-10, 00:09:04,VALID,916.953,VALID,0,VALID,95.0716,VALID,0,VALID,20.6764,VALID,47,VALID,0.173047,
2011-07-10, 00:10:04,VALID,916.894,VALID,0,VALID,95.1097,VALID,0,VALID,20.6764,VALID,47,VALID,0.118359,
2011-07-10, 00:11:04,VALID,916.896,VALID,0,VALID,95.1402,VALID,0,VALID,20.6959,VALID,47,VALID,0.150781,
2011-07-10, 00:12:04,VALID,916.892,VALID,0,VALID,94.9115,VALID,0,VALID,20.6553,VALID,47,VALID,0.748047,
2011-07-10, 00:13:04,VALID,916.883,VALID,0,VALID,95.0488,VALID,0,VALID,20.6975,VALID,47,VALID,0.162891,
2011-07-10, 00:14:04,VALID,916.863,VALID,0,VALID,95.0792,VALID,0,VALID,20.717,VALID,47,VALID,0.276172,
2011-07-10, 00:15:04,VALID,916.846,VALID,0,VALID,95.0488,VALID,0,VALID,20.717,VALID,47,VALID,0.23125,
2011-07-10, 00:16:04,VALID,916.81,VALID,0,VALID,95.1021,VALID,0,VALID,20.6764,VALID,47,VALID,0.285547,
2011-07-10, 00:17:04,VALID,916.821,VALID,0,VALID,95.1479,VALID,0,VALID,20.6975,VALID,47,VALID,0.329688,
2011-07-10, 00:18:04,VALID,916.823,VALID,0,VALID,95.1326,VALID,0,VALID,20.717,VALID,47,VALID,0.369531,
2011-07-10, 00:19:04,VALID,916.826,VALID,0,VALID,95.125,VALID,0,VALID,20.717,VALID,47,VALID,0.206641,
2011-07-10, 00:20:04,VALID,916.784,VALID,0,VALID,95.1555,VALID,0,VALID,20.717,VALID,47,VALID,0,
2011-07-10, 00:21:04,VALID,916.8,VALID,0,VALID,95.2241,VALID,0,VALID,20.7755,VALID,47,VALID,0,
2011-07-10, 00:22:04,VALID,916.776,VALID,0,VALID,95.247,VALID,0,VALID,20.795,VALID,47,VALID,0,
2011-07-10, 00:23:04,VALID,916.776,VALID,0,VALID,95.1479,VALID,0,VALID,20.8129,VALID,47,VALID,0,
2011-07-10, 00:24:04,VALID,916.749,VALID,0,VALID,95.0259,VALID,0,VALID,20.834,VALID,47,VALID,0.192578,
2011-07-10, 00:25:04,VALID,916.753,VALID,0,VALID,94.9725,VALID,0,VALID,20.8324,VALID,47,VALID,0,
2011-07-10, 00:26:04,VALID,916.772,VALID,0,VALID,94.82,VALID,0,VALID,20.8535,VALID,47,VALID,0.00859375,
2011-07-10, 00:27:04,VALID,916.778,VALID,0,VALID,94.7362,VALID,0,VALID,20.8941,VALID,47,VALID,0.0078125,
2011-07-10, 00:28:04,VALID,916.8,VALID,0,VALID,94.6066,VALID,0,VALID,20.8714,VALID,47,VALID,0.215234,
2011-07-10, 00:29:04,VALID,916.781,VALID,0,VALID,94.5151,VALID,0,VALID,20.8714,VALID,47,VALID,0.123047,
2011-07-10, 00:30:04,VALID,916.794,VALID,0,VALID,94.477,VALID,0,VALID,20.8714,VALID,47,VALID,0,
2011-07-10, 00:31:04,VALID,916.802,VALID,0,VALID,94.4465,VALID,0.107441,VALID,20.891,VALID,47,VALID,0.147656,
2011-07-10, 00:32:04,VALID,916.82,VALID,0,VALID,94.3931,VALID,0,VALID,20.891,VALID,47,VALID,0.268359,
2011-07-10, 00:33:04,VALID,916.762,VALID,0,VALID,94.3779,VALID,0,VALID,20.8714,VALID,47,VALID,0,
2011-07-10, 00:34:04,VALID,916.76,VALID,0,VALID,94.3169,VALID,0,VALID,20.9105,VALID,47,VALID,0,
2011-07-10, 00:35:04,VALID,916.75,VALID,0,VALID,94.3169,VALID,0.107441,VALID,20.93,VALID,47,VALID,0.176563,
2011-07-10, 00:36:04,VALID,916.741,VALID,0,VALID,94.2407,VALID,0,VALID,20.93,VALID,47,VALID,0.383203,
2011-07-10, 00:37:04,VALID,916.722,VALID,0,VALID,94.1797,VALID,0,VALID,20.9495,VALID,47,VALID,0.0585938,
2011-07-10, 00:38:04,VALID,916.688,VALID,0,VALID,94.2483,VALID,0,VALID,20.9089,VALID,47,VALID,0.213281,
2011-07-10, 00:39:04,VALID,916.664,VALID,0,VALID,94.2026,VALID,0,VALID,20.9511,VALID,47,VALID,0.38125,
2011-07-10, 00:40:04,VALID,916.65,VALID,0,VALID,94.1111,VALID,0,VALID,20.9105,VALID,47,VALID,0,
2011-07-10, 00:41:04,VALID,916.645,VALID,0,VALID,94.0653,VALID,0,VALID,20.891,VALID,47,VALID,0,
2011-07-10, 00:42:04,VALID,916.662,VALID,0,VALID,93.9738,VALID,0.107441,VALID,20.8714,VALID,47,VALID,0.452734,
2011-07-10, 00:43:04,VALID,916.664,VALID,0,VALID,94.0272,VALID,0,VALID,20.8324,VALID,47,VALID,0.315234,
2011-07-10, 00:44:04,VALID,916.642,VALID,0,VALID,94.1111,VALID,0,VALID,20.8535,VALID,47,VALID,0.483984,
2011-07-10, 00:45:04,VALID,916.618,VALID,0,VALID,93.9357,VALID,0,VALID,20.8145,VALID,47,VALID,0.490234,
2011-07-10, 00:46:04,VALID,916.627,VALID,0,VALID,94.0043,VALID,0,VALID,20.795,VALID,47,VALID,0.219531,
2011-07-10, 00:47:04,VALID,916.6,VALID,0,VALID,94.0272,VALID,0,VALID,20.7755,VALID,47,VALID,0,
2011-07-10, 00:48:04,VALID,916.57,VALID,0,VALID,94.1111,VALID,0,VALID,20.7966,VALID,47,VALID,0,
2011-07-10, 00:49:04,VALID,916.571,VALID,0,VALID,94.1721,VALID,0,VALID,20.795,VALID,47,VALID,0,
2011-07-10, 00:50:04,VALID,916.568,VALID,0,VALID,94.2254,VALID,0,VALID,20.795,VALID,47,VALID,0,
2011-07-10, 00:51:04,VALID,916.555,VALID,0,VALID,94.2483,VALID,0,VALID,20.795,VALID,47,VALID,0.416016,
2011-07-10, 00:52:04,VALID,916.556,VALID,0,VALID,94.0882,VALID,0,VALID,20.7755,VALID,47,VALID,0.462891,
2011-07-10, 00:53:04,VALID,916.551,VALID,0,VALID,94.0196,VALID,0,VALID,20.756,VALID,47,VALID,0.335547,
2011-07-10, 00:54:04,VALID,916.513,VALID,0,VALID,94.1263,VALID,0,VALID,20.756,VALID,47,VALID,0.398828,
2011-07-10, 00:55:04,VALID,916.498,VALID,0,VALID,94.1416,VALID,0,VALID,20.7365,VALID,47,VALID,0.479297,
2011-07-10, 00:56:04,VALID,916.493,VALID,0,VALID,94.0882,VALID,0,VALID,20.7365,VALID,47,VALID,0.183203,
2011-07-10, 00:57:04,VALID,916.489,VALID,0,VALID,94.1187,VALID,0,VALID,20.756,VALID,47,VALID,0.589453,
2011-07-10, 00:58:04,VALID,916.543,VALID,0,VALID,94.1568,VALID,0,VALID,20.756,VALID,233,VALID,0.821484,
2011-07-10, 00:59:04,VALID,916.544,VALID,0,VALID,94.2712,VALID,0.107441,VALID,20.7138,VALID,233,VALID,0.453906,
2011-07-10, 01:00:04,VALID,916.523,VALID,0,VALID,94.4008,VALID,0,VALID,20.7349,VALID,233,VALID,0.238281,
2011-07-10, 01:01:04,VALID,916.499,VALID,0,VALID,94.3703,VALID,0.107441,VALID,20.7138,VALID,233,VALID,0.0644531,
2011-07-10, 01:02:05,VALID,916.481,VALID,0,VALID,94.2712,VALID,0,VALID,20.7349,VALID,233,VALID,0.404687,
2011-07-10, 01:03:05,VALID,916.465,VALID,0,VALID,94.2178,VALID,0.107441,VALID,20.6943,VALID,233,VALID,0.495703,
2011-07-10, 01:04:05,VALID,916.469,VALID,0,VALID,94.1949,VALID,0.107441,VALID,20.7349,VALID,233,VALID,0.453906,
2011-07-10, 01:05:05,VALID,916.475,VALID,0,VALID,94.1034,VALID,0.107441,VALID,20.6943,VALID,233,VALID,0.305469,
2011-07-10, 01:06:05,VALID,916.462,VALID,0,VALID,94.0425,VALID,0,VALID,20.717,VALID,233,VALID,0.487891,
2011-07-10, 01:07:05,VALID,916.484,VALID,0,VALID,94.0882,VALID,0.107441,VALID,20.6569,VALID,233,VALID,0.372656,
2011-07-10, 01:08:05,VALID,916.455,VALID,0,VALID,94.2102,VALID,0,VALID,20.6374,VALID,233,VALID,0.364062,
2011-07-10, 01:09:05,VALID,916.424,VALID,0,VALID,94.2712,VALID,0,VALID,20.6179,VALID,233,VALID,0.356641,
2011-07-10, 01:10:05,VALID,916.42,VALID,0,VALID,94.2712,VALID,0,VALID,20.5789,VALID,233,VALID,0.157422,
2011-07-10, 01:11:05,VALID,916.392,VALID,0,VALID,94.2788,VALID,0,VALID,20.5594,VALID,233,VALID,0.0304688,
2011-07-10, 01:12:05,VALID,916.424,VALID,0,VALID,94.3017,VALID,0,VALID,20.5804,VALID,233,VALID,0,
2011-07-10, 01:13:05,VALID,916.41,VALID,0,VALID,94.3931,VALID,0,VALID,20.5188,VALID,233,VALID,0,
2011-07-10, 01:14:05,VALID,916.396,VALID,0,VALID,94.4999,VALID,0,VALID,20.5625,VALID,233,VALID,0,
2011-07-10, 01:15:05,VALID,916.405,VALID,0,VALID,94.4617,VALID,0.107441,VALID,20.4977,VALID,233,VALID,0.191016,
2011-07-10, 01:16:05,VALID,916.417,VALID,0,VALID,94.4465,VALID,0,VALID,20.5219,VALID,233,VALID,0.433594,
2011-07-10, 01:17:05,VALID,916.421,VALID,0,VALID,94.4236,VALID,0,VALID,20.5219,VALID,233,VALID,0.486719,
2011-07-10, 01:18:05,VALID,916.421,VALID,0,VALID,94.4617,VALID,0,VALID,20.4423,VALID,233,VALID,0.378125,
2011-07-10, 01:19:05,VALID,916.4,VALID,0,VALID,94.6371,VALID,0,VALID,20.4618,VALID,233,VALID,0.3625,
2011-07-10, 01:20:05,VALID,916.416,VALID,0,VALID,94.7057,VALID,0,VALID,20.4213,VALID,233,VALID,0.194531,
2011-07-10, 01:21:05,VALID,916.396,VALID,0,VALID,94.7667,VALID,0,VALID,20.4033,VALID,233,VALID,0,
2011-07-10, 01:22:05,VALID,916.394,VALID,0,VALID,94.8582,VALID,0,VALID,20.4423,VALID,233,VALID,0,
2011-07-10, 01:23:05,VALID,916.408,VALID,0,VALID,94.9039,VALID,0,VALID,20.4423,VALID,233,VALID,0.0507813,
2011-07-10, 01:24:05,VALID,916.412,VALID,0,VALID,94.8887,VALID,0,VALID,20.4408,VALID,233,VALID,0.00585938,
2011-07-10, 01:25:05,VALID,916.417,VALID,0,VALID,94.8963,VALID,0,VALID,20.4618,VALID,233,VALID,0,
2011-07-10, 01:26:05,VALID,916.406,VALID,0,VALID,94.8734,VALID,0,VALID,20.4813,VALID,233,VALID,0.567578,
2011-07-10, 01:27:05,VALID,916.398,VALID,0,VALID,94.8734,VALID,0,VALID,20.5009,VALID,233,VALID,0.442578,
2011-07-10, 01:28:05,VALID,916.388,VALID,0,VALID,94.8582,VALID,0,VALID,20.5219,VALID,233,VALID,0.159766,
2011-07-10, 01:29:05,VALID,916.373,VALID,0,VALID,94.82,VALID,0,VALID,20.5219,VALID,233,VALID,0.370313,
2011-07-10, 01:30:05,VALID,916.317,VALID,0,VALID,94.8124,VALID,0,VALID,20.5024,VALID,355,VALID,0.50625,
2011-07-10, 01:31:05,VALID,916.321,VALID,0,VALID,94.8887,VALID,0,VALID,20.5024,VALID,355,VALID,0.560156,
2011-07-10, 01:32:05,VALID,916.343,VALID,0,VALID,95.003,VALID,0,VALID,20.5009,VALID,355,VALID,0.498047,
2011-07-10, 01:33:05,VALID,916.327,VALID,0,VALID,95.0869,VALID,0,VALID,20.5219,VALID,355,VALID,0.564844,
2011-07-10, 01:34:05,VALID,916.35,VALID,0,VALID,95.1631,VALID,0,VALID,20.5804,VALID,355,VALID,0.685547,
2011-07-10, 01:35:05,VALID,916.35,VALID,0,VALID,95.0411,VALID,0,VALID,20.5999,VALID,355,VALID,0.571875,
2011-07-10, 01:36:05,VALID,916.368,VALID,0,VALID,94.9192,VALID,0,VALID,20.5999,VALID,355,VALID,0.271094,
2011-07-10, 01:37:05,VALID,916.338,VALID,0,VALID,94.8353,VALID,0,VALID,20.5984,VALID,355,VALID,0.124609,
2011-07-10, 01:38:05,VALID,916.328,VALID,0,VALID,94.8277,VALID,0,VALID,20.6194,VALID,355,VALID,0.0589844,
2011-07-10, 01:39:05,VALID,916.31,VALID,0,VALID,94.8277,VALID,0,VALID,20.639,VALID,355,VALID,0.120312,
2011-07-10, 01:40:05,VALID,916.243,VALID,0,VALID,94.7514,VALID,0,VALID,20.6569,VALID,355,VALID,0,
2011-07-10, 01:41:05,VALID,916.232,VALID,0,VALID,94.6752,VALID,0,VALID,20.6975,VALID,355,VALID,0,
2011-07-10, 01:42:05,VALID,916.244,VALID,0,VALID,94.5075,VALID,0,VALID,20.6959,VALID,355,VALID,0.289453,
2011-07-10, 01:43:05,VALID,916.195,VALID,0,VALID,94.3779,VALID,0,VALID,20.7349,VALID,355,VALID,0.388281,
2011-07-10, 01:44:05,VALID,916.209,VALID,0,VALID,94.1416,VALID,0,VALID,20.6959,VALID,355,VALID,0.75,
2011-07-10, 01:45:05,VALID,916.155,VALID,0,VALID,94.2483,VALID,0,VALID,20.6764,VALID,355,VALID,0.610156,
2011-07-10, 01:46:05,VALID,916.15,VALID,0,VALID,94.2864,VALID,0,VALID,20.6569,VALID,355,VALID,0.404297,
2011-07-10, 01:47:05,VALID,916.115,VALID,0,VALID,94.3779,VALID,0,VALID,20.6569,VALID,355,VALID,0.527734,
2011-07-10, 01:48:05,VALID,916.079,VALID,0,VALID,94.355,VALID,0,VALID,20.5757,VALID,355,VALID,0.226172,
2011-07-10, 01:49:05,VALID,916.075,VALID,0,VALID,94.3931,VALID,0.107441,VALID,20.6179,VALID,355,VALID,0.323438,
2011-07-10, 01:50:05,VALID,916.11,VALID,0,VALID,94.4389,VALID,0,VALID,20.6179,VALID,355,VALID,0.430859,
2011-07-10, 01:51:05,VALID,916.077,VALID,0,VALID,94.355,VALID,0,VALID,20.6179,VALID,355,VALID,0.55625,
2011-07-10, 01:52:05,VALID,916.08,VALID,0,VALID,94.2635,VALID,0,VALID,20.6179,VALID,355,VALID,0.533984,
2011-07-10, 01:53:05,VALID,916.065,VALID,0,VALID,94.2635,VALID,0,VALID,20.5789,VALID,355,VALID,0.519141,
2011-07-10, 01:54:05,VALID,916.038,VALID,0,VALID,94.3626,VALID,0,VALID,20.5594,VALID,355,VALID,0.333984,
2011-07-10, 01:55:05,VALID,916.029,VALID,0,VALID,94.4313,VALID,0,VALID,20.5804,VALID,355,VALID,0.897266,
2011-07-10, 01:56:05,VALID,915.998,VALID,0,VALID,94.4541,VALID,0,VALID,20.5594,VALID,355,VALID,1.33203,
2011-07-10, 01:57:05,VALID,916.018,VALID,0,VALID,94.5837,VALID,0,VALID,20.5594,VALID,355,VALID,1.04336,
2011-07-10, 01:58:05,VALID,916.099,VALID,0,VALID,94.5685,VALID,0,VALID,20.5594,VALID,355,VALID,0.960938,
2011-07-10, 01:59:05,VALID,916.121,VALID,0,VALID,94.5532,VALID,0,VALID,20.5172,VALID,330,VALID,0.516016,
2011-07-10, 02:00:05,VALID,916.156,VALID,0,VALID,94.6066,VALID,0,VALID,20.5594,VALID,330,VALID,0.483594,
2011-07-10, 02:01:05,VALID,916.13,VALID,0,VALID,94.6371,VALID,0,VALID,20.5383,VALID,330,VALID,0.7625,
2011-07-10, 02:02:05,VALID,916.15,VALID,0,VALID,94.5761,VALID,0,VALID,20.5594,VALID,330,VALID,0.711719,
2011-07-10, 02:03:05,VALID,916.094,VALID,0,VALID,94.5227,VALID,0,VALID,20.5594,VALID,330,VALID,0.842188,
2011-07-10, 02:04:05,VALID,916.087,VALID,0,VALID,94.4389,VALID,0,VALID,20.5594,VALID,330,VALID,0.645312,
2011-07-10, 02:05:05,VALID,916.05,VALID,0,VALID,94.416,VALID,0,VALID,20.5999,VALID,330,VALID,0.672656,
2011-07-10, 02:06:05,VALID,916.036,VALID,0,VALID,94.4084,VALID,0.107441,VALID,20.5399,VALID,330,VALID,0.849609,
2011-07-10, 02:07:05,VALID,916.019,VALID,0,VALID,94.5609,VALID,0,VALID,20.5594,VALID,330,VALID,0.819141,
2011-07-10, 02:08:05,VALID,915.984,VALID,0,VALID,94.6295,VALID,0,VALID,20.5399,VALID,330,VALID,0.964844,
2011-07-10, 02:09:05,VALID,916.025,VALID,0,VALID,94.6828,VALID,0.107441,VALID,20.5188,VALID,330,VALID,0.557813,
2011-07-10, 02:10:05,VALID,916.001,VALID,0,VALID,94.7743,VALID,0,VALID,20.5204,VALID,330,VALID,0.511328,
2011-07-10, 02:11:05,VALID,915.987,VALID,0,VALID,94.7896,VALID,0,VALID,20.5594,VALID,330,VALID,0.392969,
2011-07-10, 02:12:05,VALID,916.014,VALID,0,VALID,94.6981,VALID,0,VALID,20.5578,VALID,330,VALID,0.586719,
2011-07-10, 02:13:05,VALID,915.972,VALID,0,VALID,94.5761,VALID,0,VALID,20.5609,VALID,330,VALID,0.680469,
2011-07-10, 02:14:05,VALID,915.951,VALID,0,VALID,94.6905,VALID,0,VALID,20.5399,VALID,330,VALID,0.755859,
2011-07-10, 02:15:05,VALID,915.946,VALID,0,VALID,94.7286,VALID,0,VALID,20.5219,VALID,331,VALID,1.34102,
2011-07-10, 02:16:05,VALID,915.957,VALID,0,VALID,94.7896,VALID,0,VALID,20.5024,VALID,331,VALID,0.768359,
2011-07-10, 02:17:05,VALID,915.949,VALID,0,VALID,94.9573,VALID,0,VALID,20.5024,VALID,331,VALID,0.463281,
2011-07-10, 02:18:05,VALID,915.946,VALID,0,VALID,95.0411,VALID,0,VALID,20.5024,VALID,331,VALID,0.480859,
2011-07-10, 02:19:05,VALID,915.923,VALID,0,VALID,95.0183,VALID,0,VALID,20.5024,VALID,331,VALID,0.668359,
2011-07-10, 02:20:05,VALID,915.901,VALID,0,VALID,95.0183,VALID,0,VALID,20.4829,VALID,331,VALID,0.854688,
2011-07-10, 02:21:05,VALID,915.887,VALID,0,VALID,95.0259,VALID,0,VALID,20.4618,VALID,331,VALID,0.708594,
2011-07-10, 02:22:05,VALID,915.871,VALID,0,VALID,95.0792,VALID,0,VALID,20.4634,VALID,331,VALID,0.835547,
2011-07-10, 02:23:05,VALID,915.898,VALID,0,VALID,95.125,VALID,0,VALID,20.4634,VALID,331,VALID,0.583203,
2011-07-10, 02:24:05,VALID,915.909,VALID,0,VALID,95.1631,VALID,0,VALID,20.4634,VALID,331,VALID,0.336328,
2011-07-10, 02:25:05,VALID,915.906,VALID,0,VALID,95.2241,VALID,0,VALID,20.4813,VALID,331,VALID,0.183984,
2011-07-10, 02:26:05,VALID,915.86,VALID,0,VALID,95.247,VALID,0,VALID,20.4829,VALID,331,VALID,0,
2011-07-10, 02:27:05,VALID,915.845,VALID,0,VALID,95.2622,VALID,0,VALID,20.4829,VALID,331,VALID,0,
2011-07-10, 02:28:05,VALID,915.815,VALID,0,VALID,95.2622,VALID,0,VALID,20.5024,VALID,331,VALID,0,
2011-07-10, 02:29:05,VALID,915.801,VALID,0,VALID,95.2927,VALID,0,VALID,20.5009,VALID,331,VALID,0.0851562,
2011-07-10, 02:30:05,VALID,915.776,VALID,0,VALID,95.3003,VALID,0,VALID,20.5414,VALID,331,VALID,0.284375,
2011-07-10, 02:31:05,VALID,915.747,VALID,0,VALID,95.2317,VALID,0,VALID,20.5609,VALID,331,VALID,0.371875,
2011-07-10, 02:32:05,VALID,915.739,VALID,0,VALID,95.1402,VALID,0,VALID,20.5804,VALID,331,VALID,0.408203,
2011-07-10, 02:33:05,VALID,915.691,VALID,0,VALID,95.003,VALID,0,VALID,20.5609,VALID,331,VALID,0.688281,
2011-07-10, 02:34:05,VALID,915.676,VALID,0,VALID,94.9878,VALID,0,VALID,20.5609,VALID,331,VALID,0.675391,
2011-07-10, 02:35:05,VALID,915.642,VALID,0,VALID,94.8505,VALID,0,VALID,20.5414,VALID,331,VALID,0.530469,
2011-07-10, 02:36:05,VALID,915.647,VALID,0,VALID,94.8429,VALID,0,VALID,20.5625,VALID,331,VALID,0.292969,
2011-07-10, 02:37:05,VALID,915.612,VALID,0,VALID,94.9192,VALID,0,VALID,20.5414,VALID,331,VALID,0.125781,
2011-07-10, 02:38:05,VALID,915.594,VALID,0,VALID,94.9344,VALID,0,VALID,20.5414,VALID,331,VALID,0,
2011-07-10, 02:39:05,VALID,915.616,VALID,0,VALID,94.9115,VALID,0,VALID,20.5414,VALID,331,VALID,0.35,
2011-07-10, 02:40:05,VALID,915.571,VALID,0,VALID,94.9115,VALID,0,VALID,20.5204,VALID,331,VALID,0.383984,
2011-07-10, 02:41:05,VALID,915.601,VALID,0,VALID,94.881,VALID,0,VALID,20.5414,VALID,331,VALID,0.577344,
2011-07-10, 02:42:05,VALID,915.587,VALID,0,VALID,94.8963,VALID,0,VALID,20.5414,VALID,331,VALID,0.344141,
2011-07-10, 02:43:05,VALID,915.607,VALID,0,VALID,94.9115,VALID,0,VALID,20.5399,VALID,331,VALID,0.3125,
2011-07-10, 02:44:05,VALID,915.613,VALID,0,VALID,94.9039,VALID,0,VALID,20.5383,VALID,331,VALID,0.278125,
2011-07-10, 02:45:05,VALID,915.632,VALID,0,VALID,94.8277,VALID,0,VALID,20.5594,VALID,331,VALID,0,
2011-07-10, 02:46:05,VALID,915.662,VALID,0,VALID,94.8429,VALID,0,VALID,20.5594,VALID,331,VALID,0,
2011-07-10, 02:47:05,VALID,915.664,VALID,0,VALID,94.8124,VALID,0,VALID,20.5594,VALID,331,VALID,0.433984,
2011-07-10, 02:48:05,VALID,915.653,VALID,0,VALID,94.7896,VALID,0,VALID,20.5578,VALID,331,VALID,0.141406,
2011-07-10, 02:49:05,VALID,915.664,VALID,0,VALID,94.82,VALID,0,VALID,20.5594,VALID,331,VALID,0,
2011-07-10, 02:50:05,VALID,915.661,VALID,0,VALID,94.8734,VALID,0,VALID,20.5594,VALID,331,VALID,0.0890625,
2011-07-10, 02:51:05,VALID,915.654,VALID,0,VALID,94.7819,VALID,0,VALID,20.5594,VALID,331,VALID,0.139453,
2011-07-10, 02:52:05,VALID,915.673,VALID,0,VALID,94.7514,VALID,0.107441,VALID,20.5383,VALID,331,VALID,0.140234,
2011-07-10, 02:53:05,VALID,915.656,VALID,0,VALID,94.7057,VALID,0,VALID,20.5399,VALID,331,VALID,0.326172,
2011-07-10, 02:54:05,VALID,915.694,VALID,0,VALID,94.7209,VALID,0.107441,VALID,20.5383,VALID,331,VALID,0.249609,
2011-07-10, 02:55:05,VALID,915.722,VALID,0,VALID,94.7133,VALID,0,VALID,20.5789,VALID,331,VALID,0.00117188,
2011-07-10, 02:56:05,VALID,915.729,VALID,0,VALID,94.5837,VALID,0,VALID,20.5594,VALID,331,VALID,0.636328,
2011-07-10, 02:57:05,VALID,915.69,VALID,0,VALID,94.5075,VALID,0.107441,VALID,20.5383,VALID,331,VALID,0.317187,
2011-07-10, 02:58:05,VALID,915.667,VALID,0,VALID,94.4999,VALID,0.107441,VALID,20.5789,VALID,331,VALID,0.553906,
2011-07-10, 02:59:05,VALID,915.638,VALID,0,VALID,94.4084,VALID,0,VALID,20.5594,VALID,256,VALID,1.08047,
2011-07-10, 03:00:05,VALID,915.636,VALID,0,VALID,94.4541,VALID,0,VALID,20.5399,VALID,256,VALID,0.921484,
2011-07-10, 03:01:05,VALID,915.631,VALID,0,VALID,94.5609,VALID,0,VALID,20.5009,VALID,256,VALID,0.476953,
2011-07-10, 03:02:05,VALID,915.662,VALID,0,VALID,94.7819,VALID,0,VALID,20.5009,VALID,256,VALID,0.304688,
2011-07-10, 03:03:05,VALID,915.656,VALID,0,VALID,94.8353,VALID,0.107441,VALID,20.4798,VALID,256,VALID,0.0472656,
2011-07-10, 03:04:05,VALID,915.67,VALID,0,VALID,94.9344,VALID,0,VALID,20.5009,VALID,256,VALID,0.167187,
2011-07-10, 03:05:05,VALID,915.665,VALID,0,VALID,94.9344,VALID,0,VALID,20.5009,VALID,256,VALID,0,
2011-07-10, 03:06:05,VALID,915.627,VALID,0,VALID,95.0183,VALID,0,VALID,20.5204,VALID,256,VALID,0.296484,
2011-07-10, 03:07:05,VALID,915.602,VALID,0,VALID,95.0335,VALID,0,VALID,20.5204,VALID,256,VALID,0.803516,
2011-07-10, 03:08:05,VALID,915.551,VALID,0,VALID,95.003,VALID,0,VALID,20.5204,VALID,256,VALID,0.866797,
2011-07-10, 03:09:05,VALID,915.47,VALID,0,VALID,94.881,VALID,0,VALID,20.5235,VALID,347,VALID,1.15391,
2011-07-10, 03:10:05,VALID,915.475,VALID,0,VALID,94.8582,VALID,0,VALID,20.4813,VALID,27,VALID,0.489062,
2011-07-10, 03:11:05,VALID,915.474,VALID,0,VALID,94.8124,VALID,0,VALID,20.4392,VALID,27,VALID,0.0777344,
2011-07-10, 03:12:05,VALID,915.507,VALID,0,VALID,94.8429,VALID,0,VALID,20.4423,VALID,27,VALID,0.383594,
2011-07-10, 03:13:05,VALID,915.504,VALID,0,VALID,94.8963,VALID,0.107441,VALID,20.3807,VALID,27,VALID,0.271484,
2011-07-10, 03:14:05,VALID,915.484,VALID,0,VALID,94.8582,VALID,0,VALID,20.3823,VALID,27,VALID,0.533594,
2011-07-10, 03:15:05,VALID,915.431,VALID,0,VALID,94.8429,VALID,0.107441,VALID,20.3643,VALID,27,VALID,0.701563,
2011-07-10, 03:16:05,VALID,915.412,VALID,0,VALID,94.9115,VALID,0,VALID,20.3027,VALID,27,VALID,0.544141,
2011-07-10, 03:17:05,VALID,915.397,VALID,0,VALID,94.8429,VALID,0,VALID,20.3043,VALID,27,VALID,0.455078,
2011-07-10, 03:18:05,VALID,915.372,VALID,0,VALID,94.8734,VALID,0,VALID,20.3058,VALID,27,VALID,0.0824219,
2011-07-10, 03:19:05,VALID,915.389,VALID,0,VALID,94.9115,VALID,0,VALID,20.2863,VALID,27,VALID,0,
2011-07-10, 03:20:05,VALID,915.392,VALID,0,VALID,94.9725,VALID,0,VALID,20.2263,VALID,27,VALID,0,
2011-07-10, 03:21:05,VALID,915.402,VALID,0,VALID,95.0259,VALID,0,VALID,20.2473,VALID,27,VALID,0,
2011-07-10, 03:22:05,VALID,915.397,VALID,0,VALID,95.0259,VALID,0.107441,VALID,20.2278,VALID,27,VALID,0.199609,
2011-07-10, 03:23:05,VALID,915.378,VALID,0,VALID,95.0945,VALID,0,VALID,20.2083,VALID,27,VALID,0.732813,
2011-07-10, 03:24:05,VALID,915.388,VALID,0,VALID,95.1402,VALID,0,VALID,20.1693,VALID,27,VALID,0.939062,
2011-07-10, 03:25:05,VALID,915.378,VALID,0,VALID,95.1097,VALID,0.107441,VALID,20.1724,VALID,27,VALID,0.700781,
2011-07-10, 03:26:05,VALID,915.335,VALID,0,VALID,95.0869,VALID,0,VALID,20.0508,VALID,27,VALID,0.8,
2011-07-10, 03:27:05,VALID,915.337,VALID,0,VALID,95.2317,VALID,0,VALID,20.0523,VALID,27,VALID,0.716016,
2011-07-10, 03:28:05,VALID,915.278,VALID,0,VALID,95.2165,VALID,0,VALID,20.0343,VALID,27,VALID,0.557813,
2011-07-10, 03:29:05,VALID,915.245,VALID,0,VALID,95.0945,VALID,0,VALID,19.9353,VALID,27,VALID,0.740234,
2011-07-10, 03:30:05,VALID,915.195,VALID,0,VALID,95.3003,VALID,0,VALID,19.9353,VALID,27,VALID,0.797656,
2011-07-10, 03:31:05,VALID,915.211,VALID,0,VALID,95.4071,VALID,0,VALID,19.9353,VALID,27,VALID,0.894531,
2011-07-10, 03:32:05,VALID,915.233,VALID,0,VALID,95.529,VALID,0,VALID,19.9173,VALID,27,VALID,0.647656,
2011-07-10, 03:33:05,VALID,915.263,VALID,0,VALID,95.6205,VALID,0,VALID,19.8768,VALID,27,VALID,0.788672,
2011-07-10, 03:34:05,VALID,915.257,VALID,0,VALID,95.7501,VALID,0,VALID,19.8978,VALID,3,VALID,1.04961,
2011-07-10, 03:35:05,VALID,915.279,VALID,0,VALID,95.8645,VALID,0.107441,VALID,19.9398,VALID,360,VALID,0.932813,
2011-07-10, 03:36:05,VALID,915.253,VALID,0,VALID,95.9102,VALID,0,VALID,19.8378,VALID,360,VALID,0.792188,
2011-07-10, 03:37:05,VALID,915.275,VALID,0,VALID,95.9941,VALID,0,VALID,19.8183,VALID,360,VALID,0.939062,
2011-07-10, 03:38:05,VALID,915.207,VALID,0,VALID,96.0322,VALID,0,VALID,19.8393,VALID,360,VALID,1.04688,
2011-07-10, 03:39:05,VALID,915.185,VALID,0,VALID,96.0703,VALID,0,VALID,19.8408,VALID,360,VALID,0.673437,
2011-07-10, 03:40:05,VALID,915.169,VALID,0,VALID,96.1465,VALID,0,VALID,19.7598,VALID,360,VALID,0.921484,
2011-07-10, 03:41:05,VALID,915.119,VALID,0,VALID,96.238,VALID,0,VALID,19.7388,VALID,360,VALID,1.13633,
2011-07-10, 03:42:05,VALID,915.121,VALID,0,VALID,96.3066,VALID,0.107441,VALID,19.7793,VALID,360,VALID,0.996094,
2011-07-10, 03:43:05,VALID,915.183,VALID,0,VALID,96.3371,VALID,0,VALID,19.7793,VALID,360,VALID,0.986328,
2011-07-10, 03:44:05,VALID,915.212,VALID,0,VALID,96.3829,VALID,0,VALID,19.7808,VALID,360,VALID,1.18281,
2011-07-10, 03:45:05,VALID,915.214,VALID,0,VALID,96.4591,VALID,0,VALID,19.8408,VALID,359,VALID,1.12031,